Home   Weather   Sherbrooke   Past weeks

Flag for Canada Past Weather in Sherbrooke, Quebec, Canada — Yesterday and Last 2 Weeks

Now
45 °F

Passing clouds.


Feels Like: 42 °F
Forecast: 34 / 41 °F
Wind: 5 mph from Southwest

Location: Sherbrooke

Current Time: Feb 22, 2017 at 12:25:28 pm

Latest Report: Feb 22, 2017 at 12:00 pm


Visibility: 9 mi

Pressure: 29.94 "Hg

Humidity: 57%

Dew Point: 30 °F

Location of SherbrookeLocation

Past Weather in Sherbrooke — Graph

°F

Sherbrooke Temperature Yesterday

Maximum temperature yesterday: 43 °F (at 4:00 pm)
Minimum temperature yesterday: 3 °F (at 5:00 am)
Average temperature yesterday: 27 °F

High & Low Weather Summary for the Past Weeks

 TemperatureHumidityPressure
High45 °F (Feb 18, 4:00 pm)100% (Feb 8, 9:08 am)30.43 "Hg (Feb 8, 9:08 am)
Low-6 °F (Feb 10, 3:00 am)31% (Feb 21, 4:00 pm)29.33 "Hg (Feb 8, 6:04 am)
Average20 °F77%29.81 "Hg
* Reported Feb 7 11:00 am — Feb 22 11:00 am, Sherbrooke, Weather by CustomWeather, © 2017

Note: Actual official high and low records may vary slightly from our data, if they occured in-between our weather recording intervals... More about our weather records

Advertising

Sherbrooke Weather History for the Previous 24 Hours

Scroll right to see more
 ConditionsComfort  
Time TempWeatherWind HumidityBarometerVisibility
11:00 am
Wed, Feb 22
39 °FOvercast.7 mph65%29.98 "Hg9 mi
10:08 am39 °FOvercast.5 mph65%29.97 "Hg9 mi
10:00 am39 °FOvercast.2 mph65%29.98 "Hg9 mi
9:00 am37 °FOvercast.3 mph65%29.98 "Hg9 mi
8:08 am36 °FOvercast.No wind65%29.98 "Hg9 mi
7:23 am34 °FOvercast.No wind75%29.98 "Hg9 mi
7:00 am34 °FOvercast.No wind75%29.97 "Hg9 mi
6:00 am34 °FOvercast.2 mph81%29.96 "Hg9 mi
5:00 am37 °FOvercast.3 mph60%29.97 "Hg9 mi
4:43 am36 °FOvercast.2 mph70%29.96 "Hg9 mi
4:12 am34 °FMostly cloudy.3 mph75%29.96 "Hg9 mi
4:00 am34 °FMostly cloudy.5 mph81%29.96 "Hg9 mi
3:49 am34 °FMostly cloudy.2 mph81%29.96 "Hg9 mi
3:24 am36 °FMostly cloudy.2 mph70%29.97 "Hg9 mi
3:00 am34 °FLight rain. Overcast.No wind75%29.97 "Hg9 mi
2:54 am36 °FLight rain. Overcast.No wind60%29.96 "Hg9 mi
2:00 am37 °FOvercast.3 mph48%29.96 "Hg9 mi
1:00 am37 °FMostly cloudy.No wind48%29.96 "Hg9 mi
12:00 am39 °FOvercast.5 mph42%29.97 "Hg9 mi
11:00 pm
Tue, Feb 21
39 °FOvercast.6 mph42%29.98 "Hg9 mi
10:12 pm39 °FOvercast.9 mph42%30.00 "Hg9 mi
10:00 pm39 °FLight rain. Overcast.7 mph42%30.01 "Hg9 mi
9:55 pm39 °FLight rain. Overcast.7 mph42%30.01 "Hg9 mi
9:36 pm39 °FLight rain. Overcast.8 mph42%30.01 "Hg9 mi
9:00 pm37 °FMostly cloudy.5 mph45%30.03 "Hg9 mi
8:00 pm37 °FPassing clouds.7 mph45%30.04 "Hg9 mi
7:00 pm41 °FOvercast.5 mph36%30.03 "Hg9 mi
6:00 pm39 °FPassing clouds.5 mph45%30.03 "Hg9 mi
5:00 pm43 °FPassing clouds.6 mph31%30.05 "Hg9 mi
4:00 pm43 °FSunny.6 mph31%30.07 "Hg9 mi
3:00 pm41 °FSunny.9 mph42%30.09 "Hg9 mi
2:00 pm41 °FSunny.8 mph33%30.14 "Hg9 mi
1:00 pm39 °FSunny.6 mph36%30.17 "Hg9 mi
12:00 pm34 °FSunny.No wind41%30.24 "Hg9 mi
Weather by CustomWeather, © 2017

See weather overviewHow to use our weather pages